| time (UTC) | temp C | wind direction | speed KPH | gust KPH | rain 1hr cm | rain 24hr cm | rain mn cm | humidity % | barometer mb |
| 20260507224917 | 5 | 0.0 | 0.0 | 0.00 | 0.36 | 0.00 | 93 | 1020.2 | |
| 20260507223937 | 5 | 0.0 | 0.0 | 0.00 | 0.36 | 0.00 | 93 | 1020.1 | |
| 20260507222937 | 5 | 0.0 | 0.0 | 0.00 | 0.36 | 0.00 | 93 | 1020.1 | |
| 20260507221937 | 5 | 0.0 | 0.0 | 0.00 | 0.36 | 0.00 | 93 | 1020.1 | |
| 20260507220917 | 5 | 0.0 | 0.0 | 0.00 | 0.36 | 0.00 | 93 | 1020.1 | |
| 20260507215916 | 6 | 0.0 | 0.0 | 0.00 | 0.43 | 0.36 | 93 | 1020.1 | |
| 20260507214936 | 6 | 0.0 | 0.0 | 0.00 | 0.43 | 0.36 | 93 | 1020.1 | |
| 20260507213936 | 6 | 0.0 | 0.0 | 0.00 | 0.43 | 0.36 | 93 | 1020.0 | |
| 20260507212916 | 6 | 0.0 | 0.0 | 0.00 | 0.43 | 0.36 | 93 | 1019.9 | |
| 20260507211916 | 6 | 0.0 | 0.0 | 0.00 | 0.43 | 0.36 | 93 | 1020.0 | |
| 20260507210936 | 6 | 0.0 | 0.0 | 0.00 | 0.43 | 0.36 | 93 | 1019.9 | |
| 20260507205916 | 7 | 0.0 | 0.0 | 0.00 | 0.71 | 0.36 | 93 | 1019.8 | |
| 20260507204916 | 7 | 0.0 | 0.0 | 0.00 | 0.71 | 0.36 | 93 | 1019.8 | |
| 20260507203916 | 7 | 0.0 | 0.0 | 0.00 | 0.71 | 0.36 | 93 | 1019.7 | |
| 20260507202916 | 7 | 0.0 | 0.0 | 0.00 | 0.71 | 0.36 | 93 | 1019.6 | |
| 20260507201916 | 7 | 0.0 | 0.0 | 0.00 | 0.71 | 0.36 | 93 | 1019.5 | |
| 20260507200916 | 7 | 0.0 | 0.0 | 0.00 | 0.71 | 0.36 | 92 | 1019.3 | |
| 20260507195916 | 8 | 0.0 | 0.0 | 0.00 | 1.14 | 0.36 | 91 | 1019.3 | |
| 20260507194936 | 8 | 0.0 | 0.0 | 0.00 | 1.14 | 0.36 | 91 | 1019.2 | |
| 20260507193916 | 9 | 0.0 | 0.0 | 0.00 | 1.14 | 0.36 | 90 | 1019.2 | |
| 20260507192916 | 9 | 0.0 | 1.6 | 0.00 | 1.14 | 0.36 | 90 | 1019.2 | |
| 20260507191916 | 10 | 0.0 | 0.0 | 0.00 | 1.14 | 0.36 | 89 | 1019.1 | |
| 20260507190916 | 10 | 0.0 | 0.0 | 0.00 | 1.14 | 0.36 | 88 | 1019.1 | |
| 20260507185916 | 10 | 0.0 | 0.0 | 0.00 | 1.42 | 0.36 | 87 | 1019.0 | |
| 20260507184916 | 10 | 225 | 1.6 | 1.6 | 0.00 | 1.42 | 0.36 | 86 | 1018.9 |
| 20260507183916 | 11 | 203 | 1.6 | 3.2 | 0.00 | 1.42 | 0.36 | 85 | 1018.9 |
| 20260507182916 | 11 | 0.0 | 0.0 | 0.00 | 1.42 | 0.36 | 85 | 1018.8 | |
| 20260507181916 | 11 | 0.0 | 0.0 | 0.00 | 1.42 | 0.36 | 85 | 1018.6 | |
| 20260507180916 | 11 | 158 | 1.6 | 3.2 | 0.00 | 1.42 | 0.36 | 84 | 1018.7 |
| 20260507175916 | 11 | 0.0 | 1.6 | 0.00 | 1.75 | 0.36 | 84 | 1018.6 | |
| 20260507174916 | 11 | 68 | 1.6 | 3.2 | 0.00 | 1.75 | 0.36 | 83 | 1018.5 |
| 20260507173916 | 11 | 0.0 | 1.6 | 0.00 | 1.75 | 0.36 | 83 | 1018.5 | |
| 20260507172916 | 12 | 135 | 1.6 | 3.2 | 0.00 | 1.75 | 0.36 | 82 | 1018.4 |
| 20260507171936 | 12 | 225 | 1.6 | 4.8 | 0.00 | 1.75 | 0.36 | 81 | 1018.3 |
| 20260507170916 | 12 | 0.0 | 1.6 | 0.00 | 1.75 | 0.36 | 81 | 1018.3 | |
| 20260507165916 | 12 | 0.0 | 1.6 | 0.00 | 2.21 | 0.36 | 80 | 1018.2 | |
| 20260507164936 | 12 | 158 | 3.2 | 4.8 | 0.00 | 2.21 | 0.36 | 79 | 1018.2 |
| 20260507163936 | 12 | 135 | 4.8 | 6.4 | 0.00 | 2.21 | 0.36 | 80 | 1018.3 |
| 20260507162916 | 12 | 158 | 4.8 | 6.4 | 0.00 | 2.21 | 0.36 | 82 | 1018.3 |
| 20260507161916 | 11 | 135 | 1.6 | 6.4 | 0.00 | 2.21 | 0.36 | 83 | 1018.2 |
| 20260507160916 | 11 | 158 | 1.6 | 3.2 | 0.00 | 2.21 | 0.36 | 83 | 1018.2 |
| 20260507155916 | 11 | 68 | 1.6 | 3.2 | 0.00 | 2.34 | 0.36 | 83 | 1018.2 |
| 20260507154916 | 11 | 158 | 1.6 | 3.2 | 0.00 | 2.34 | 0.36 | 85 | 1018.1 |
| 20260507153916 | 11 | 90 | 1.6 | 3.2 | 0.00 | 2.34 | 0.36 | 84 | 1018.1 |
| 20260507152916 | 11 | 113 | 4.8 | 8.0 | 0.00 | 2.34 | 0.36 | 83 | 1018.1 |
| 20260507151916 | 11 | 0.0 | 1.6 | 0.00 | 2.34 | 0.36 | 84 | 1018.1 | |
| 20260507150936 | 11 | 113 | 1.6 | 3.2 | 0.00 | 2.34 | 0.36 | 85 | 1018.1 |
| 20260507145916 | 11 | 135 | 4.8 | 6.4 | 0.00 | 2.39 | 0.36 | 85 | 1018.0 |
| 20260507144916 | 11 | 113 | 3.2 | 4.8 | 0.00 | 2.39 | 0.36 | 86 | 1018.0 |
| 20260507143916 | 11 | 113 | 1.6 | 1.6 | 0.00 | 2.39 | 0.36 | 87 | 1018.0 |
| 20260507142915 | 10 | 90 | 1.6 | 3.2 | 0.00 | 2.39 | 0.36 | 86 | 1018.0 |
| 20260507141936 | 10 | 68 | 1.6 | 4.8 | 0.00 | 2.39 | 0.36 | 87 | 1018.0 |
| 20260507140916 | 10 | 135 | 1.6 | 3.2 | 0.00 | 2.39 | 0.36 | 88 | 1017.9 |
| 20260507135916 | 10 | 0.0 | 0.0 | 0.00 | 2.49 | 0.36 | 89 | 1017.9 | |
| 20260507134916 | 10 | 68 | 3.2 | 4.8 | 0.00 | 2.49 | 0.36 | 90 | 1017.9 |
| 20260507133916 | 10 | 68 | 1.6 | 1.6 | 0.00 | 2.49 | 0.36 | 90 | 1017.9 |
| 20260507132916 | 10 | 68 | 1.6 | 3.2 | 0.00 | 2.49 | 0.36 | 90 | 1017.9 |
| 20260507131916 | 10 | 113 | 1.6 | 3.2 | 0.00 | 2.49 | 0.36 | 90 | 1017.9 |
| 20260507130916 | 10 | 0.0 | 1.6 | 0.00 | 2.49 | 0.36 | 90 | 1017.8 | |
| 20260507125916 | 10 | 90 | 3.2 | 4.8 | 0.00 | 2.49 | 0.36 | 91 | 1017.7 |
| 20260507124936 | 9 | 68 | 4.8 | 6.4 | 0.00 | 2.49 | 0.36 | 91 | 1017.6 |
| 20260507123916 | 9 | 68 | 4.8 | 9.7 | 0.00 | 2.49 | 0.36 | 92 | 1017.7 |
| 20260507122916 | 9 | 45 | 3.2 | 6.4 | 0.00 | 2.49 | 0.36 | 92 | 1017.6 |
| 20260507121916 | 8 | 0.0 | 1.6 | 0.00 | 2.49 | 0.36 | 92 | 1017.6 | |
| 20260507120916 | 8 | 68 | 4.8 | 8.0 | 0.00 | 2.49 | 0.36 | 92 | 1017.4 |
| 20260507115936 | 8 | 68 | 3.2 | 4.8 | 0.00 | 2.51 | 0.36 | 92 | 1017.3 |
| 20260507114916 | 8 | 0 | 1.6 | 3.2 | 0.00 | 2.51 | 0.36 | 91 | 1017.3 |
| 20260507113936 | 8 | 23 | 3.2 | 4.8 | 0.00 | 2.51 | 0.36 | 91 | 1017.4 |
| 20260507112916 | 8 | 68 | 1.6 | 4.8 | 0.00 | 2.51 | 0.36 | 91 | 1017.3 |
| 20260507111916 | 8 | 23 | 3.2 | 4.8 | 0.00 | 2.51 | 0.36 | 91 | 1017.3 |
| 20260507110916 | 8 | 45 | 1.6 | 3.2 | 0.00 | 2.51 | 0.36 | 91 | 1017.2 |
| 20260507105916 | 8 | 23 | 6.4 | 8.0 | 0.00 | 2.62 | 0.36 | 91 | 1017.2 |
| 20260507104916 | 8 | 68 | 1.6 | 3.2 | 0.00 | 2.62 | 0.36 | 91 | 1017.1 |
| 20260507103916 | 8 | 45 | 1.6 | 4.8 | 0.00 | 2.62 | 0.36 | 91 | 1017.0 |
| 20260507102916 | 8 | 90 | 3.2 | 4.8 | 0.00 | 2.62 | 0.36 | 91 | 1016.9 |
| 20260507101916 | 8 | 45 | 4.8 | 8.0 | 0.00 | 2.62 | 0.36 | 92 | 1016.8 |
| 20260507100916 | 8 | 45 | 6.4 | 11.3 | 0.00 | 2.62 | 0.36 | 92 | 1016.7 |
| 20260507095956 | 8 | 68 | 1.6 | 3.2 | 0.00 | 2.69 | 0.36 | 92 | 1016.6 |
| 20260507094936 | 8 | 0.0 | 1.6 | 0.00 | 2.69 | 0.36 | 92 | 1016.5 | |
| 20260507093916 | 8 | 45 | 4.8 | 9.7 | 0.00 | 2.69 | 0.36 | 92 | 1016.4 |
| 20260507092916 | 8 | 23 | 4.8 | 9.7 | 0.00 | 2.69 | 0.36 | 92 | 1016.2 |
| 20260507091916 | 8 | 68 | 6.4 | 9.7 | 0.00 | 2.69 | 0.36 | 92 | 1016.1 |
| 20260507090916 | 8 | 68 | 4.8 | 8.0 | 0.00 | 2.69 | 0.36 | 92 | 1016.0 |
| 20260507085936 | 7 | 0.0 | 1.6 | 0.00 | 2.90 | 0.36 | 92 | 1015.9 | |
| 20260507084916 | 7 | 68 | 3.2 | 4.8 | 0.00 | 2.90 | 0.36 | 92 | 1015.9 |
| 20260507083916 | 7 | 90 | 1.6 | 3.2 | 0.00 | 2.90 | 0.36 | 92 | 1015.8 |
| 20260507082916 | 7 | 68 | 3.2 | 4.8 | 0.00 | 2.90 | 0.36 | 92 | 1015.7 |
| 20260507081916 | 7 | 68 | 1.6 | 4.8 | 0.00 | 2.90 | 0.36 | 92 | 1015.7 |
| 20260507080916 | 7 | 45 | 3.2 | 11.3 | 0.00 | 2.90 | 0.36 | 92 | 1015.6 |
| 20260507075916 | 7 | 90 | 1.6 | 3.2 | 0.00 | 3.15 | 0.36 | 92 | 1015.5 |
| 20260507074936 | 7 | 68 | 3.2 | 6.4 | 0.00 | 3.15 | 0.36 | 92 | 1015.4 |
| 20260507073916 | 7 | 45 | 1.6 | 3.2 | 0.00 | 3.15 | 0.36 | 92 | 1015.1 |
| 20260507072936 | 7 | 68 | 6.4 | 8.0 | 0.00 | 3.15 | 0.36 | 92 | 1015.1 |
| 20260507071916 | 7 | 68 | 1.6 | 3.2 | 0.00 | 3.15 | 0.36 | 92 | 1015.0 |
| 20260507070916 | 7 | 45 | 3.2 | 4.8 | 0.00 | 3.15 | 0.36 | 92 | 1015.0 |
| 20260507065916 | 7 | 68 | 3.2 | 8.0 | 0.00 | 3.33 | 0.36 | 92 | 1014.9 |
| 20260507064916 | 7 | 113 | 3.2 | 6.4 | 0.00 | 3.33 | 0.36 | 92 | 1014.8 |
| 20260507063916 | 7 | 90 | 3.2 | 6.4 | 0.00 | 3.33 | 0.36 | 92 | 1014.6 |
| 20260507062916 | 7 | 45 | 4.8 | 6.4 | 0.00 | 3.33 | 0.36 | 92 | 1014.5 |
| 20260507061915 | 7 | 90 | 1.6 | 4.8 | 0.00 | 3.33 | 0.36 | 92 | 1014.4 |
| 20260507060916 | 7 | 90 | 3.2 | 4.8 | 0.00 | 3.33 | 0.36 | 92 | 1014.3 |
| 20260507055916 | 7 | 90 | 4.8 | 8.0 | 0.00 | 3.51 | 0.36 | 92 | 1014.1 |
| 20260507054916 | 7 | 45 | 4.8 | 9.7 | 0.00 | 3.51 | 0.36 | 92 | 1013.9 |
| 20260507053916 | 7 | 90 | 3.2 | 8.0 | 0.00 | 3.51 | 0.36 | 92 | 1013.9 |
| 20260507052915 | 7 | 68 | 3.2 | 6.4 | 0.00 | 3.51 | 0.36 | 92 | 1013.8 |
| 20260507051916 | 7 | 90 | 1.6 | 3.2 | 0.00 | 3.51 | 0.36 | 92 | 1013.7 |
| 20260507050915 | 7 | 45 | 3.2 | 4.8 | 0.00 | 3.51 | 0.36 | 92 | 1013.6 |
| 20260507045915 | 7 | 45 | 3.2 | 6.4 | 0.00 | 3.71 | 0.36 | 93 | 1013.5 |
| 20260507044916 | 7 | 45 | 3.2 | 3.2 | 0.03 | 3.71 | 0.36 | 93 | 1013.4 |
| 20260507043915 | 7 | 45 | 1.6 | 4.8 | 0.03 | 3.71 | 0.36 | 93 | 1013.3 |
| 20260507042916 | 7 | 158 | 3.2 | 8.0 | 0.03 | 3.71 | 0.36 | 93 | 1013.2 |
| 20260507041915 | 7 | 0.0 | 1.6 | 0.03 | 3.71 | 0.36 | 93 | 1013.1 | |
| 20260507040956 | 7 | 23 | 4.8 | 9.7 | 0.03 | 3.71 | 0.36 | 93 | 1012.9 |
| 20260507035915 | 7 | 23 | 4.8 | 4.8 | 0.03 | 3.96 | 0.36 | 93 | 1012.9 |
| 20260507034915 | 7 | 338 | 1.6 | 4.8 | 0.00 | 3.94 | 0.33 | 93 | 1012.8 |
| 20260507033915 | 7 | 45 | 3.2 | 6.4 | 0.00 | 3.94 | 0.33 | 93 | 1012.7 |
| 20260507032915 | 7 | 0.0 | 3.2 | 0.00 | 3.94 | 0.33 | 93 | 1012.7 | |
| 20260507031935 | 7 | 45 | 1.6 | 1.6 | 0.00 | 3.94 | 0.33 | 93 | 1012.6 |
| 20260507030916 | 7 | 45 | 1.6 | 4.8 | 0.00 | 3.94 | 0.33 | 93 | 1012.5 |
| 20260507025916 | 7 | 23 | 6.4 | 8.0 | 0.00 | 4.09 | 0.33 | 93 | 1012.4 |
| 20260507024916 | 8 | 45 | 3.2 | 4.8 | 0.00 | 4.09 | 0.33 | 93 | 1012.3 |
| 20260507023916 | 8 | 45 | 3.2 | 6.4 | 0.03 | 4.09 | 0.33 | 93 | 1012.2 |
| 20260507022915 | 8 | 45 | 3.2 | 4.8 | 0.03 | 4.09 | 0.33 | 93 | 1012.1 |
| 20260507021915 | 8 | 45 | 1.6 | 3.2 | 0.03 | 4.09 | 0.33 | 93 | 1012.2 |
| 20260507020936 | 8 | 0 | 1.6 | 4.8 | 0.03 | 4.09 | 0.33 | 93 | 1012.0 |
| 20260507015915 | 8 | 338 | 1.6 | 3.2 | 0.03 | 4.19 | 0.33 | 93 | 1011.9 |
| 20260507014915 | 8 | 0.0 | 1.6 | 0.03 | 4.19 | 0.33 | 93 | 1011.9 | |
| 20260507013915 | 8 | 0.0 | 3.2 | 0.03 | 4.17 | 0.33 | 93 | 1011.8 | |
| 20260507012936 | 8 | 23 | 3.2 | 4.8 | 0.03 | 4.17 | 0.33 | 93 | 1011.8 |
| 20260507011915 | 8 | 23 | 3.2 | 4.8 | 0.03 | 4.17 | 0.33 | 93 | 1011.8 |
| 20260507010915 | 8 | 45 | 1.6 | 3.2 | 0.03 | 4.17 | 0.33 | 93 | 1011.8 |
| 20260507005916 | 8 | 45 | 1.6 | 4.8 | 0.05 | 4.19 | 0.33 | 93 | 1011.7 |
| 20260507004915 | 8 | 0.0 | 1.6 | 0.05 | 4.19 | 0.33 | 93 | 1011.7 | |
| 20260507003936 | 8 | 45 | 1.6 | 3.2 | 0.05 | 4.19 | 0.30 | 93 | 1011.6 |
| 20260507002915 | 8 | 23 | 3.2 | 6.4 | 0.05 | 4.19 | 0.30 | 93 | 1011.6 |
| 20260507001916 | 8 | 45 | 6.4 | 12.9 | 0.10 | 4.19 | 0.30 | 93 | 1011.5 |
| 20260507000915 | 8 | 45 | 4.8 | 6.4 | 0.13 | 4.19 | 0.30 | 93 | 1011.5 |
| 20260506235915 | 8 | 45 | 3.2 | 4.8 | 0.15 | 4.17 | 0.28 | 93 | 1011.4 |
| 20260506234915 | 8 | 45 | 3.2 | 6.4 | 0.15 | 4.14 | 0.25 | 93 | 1011.4 |
| 20260506233936 | 8 | 90 | 3.2 | 4.8 | 0.15 | 4.11 | 0.23 | 93 | 1011.4 |
| 20260506232916 | 8 | 90 | 1.6 | 3.2 | 0.18 | 4.11 | 0.23 | 93 | 1011.3 |
| 20260506231916 | 8 | 45 | 3.2 | 6.4 | 0.15 | 4.09 | 0.20 | 93 | 1011.2 |
| 20260506230916 | 8 | 45 | 4.8 | 6.4 | 0.15 | 4.06 | 0.18 | 93 | 1011.3 |
| 20260506225936 | 8 | 45 | 1.6 | 1.6 | 0.15 | 4.01 | 0.15 | 93 | 1011.2 |